Regional Weather Roundup
Issued by NWS

Home | Current Version | Previous Version | Graphics & Text | Print | Product List | Glossary On
Versions: 1 2 3 4 5 6 7 8 9 10 11 12 13 14 15 16 17 18 19 20 21 22 23 24 25 26 27 28 29 30 31 32 33 34 35 36 37 38 39 40 41 42 43 44 45 46 47 48 49 50
000
ASUS43 KTOP 180408
RWRKS

WEATHER ROUNDUP FOR KANSAS
NATIONAL WEATHER SERVICE GOODLAND KS
1100 PM CDT THU APR 17 2014

NOTE:  "FAIR" INDICATES FEW OR NO CLOUDS BELOW 12,000 FEET WITH NO
SIGNIFICANT WEATHER AND/OR OBSTRUCTIONS TO VISIBILITY.

KSZ001>006-013>018-027>032-041>047-180500-
NORTHWEST KANSAS

CITY           SKY/WX    TMP DP  RH WIND       PRES   REMARKS
GOODLAND       CLEAR     41  38  89 S18       30.15R
HAYS           CLEAR     41  28  60 S5        30.23S
HILL CITY      CLEAR     45  31  58 S6        30.21R
RUSSELL        CLEAR     40  29  64 S10       30.22S WCI  33
$$

KSZ061>065-074>080-084>089-180500-
SOUTHWEST KANSAS

CITY           SKY/WX    TMP DP  RH WIND       PRES   REMARKS
DODGE CITY     CLEAR     43  39  86 S8        30.24S
ELKHART          N/A     38  30  73 SE9         N/A
GARDEN CITY    CLEAR     41  38  89 SE8       30.22S
GREAT BEND     CLEAR     41  28  60 S9        30.25R
LIBERAL        MOCLDY    45  37  76 SE9       30.25S
PRATT          CLEAR     37  36  93 S5        30.27S
$$

KSZ066>073-081>083-090>101-180500-
SOUTHEAST KANSAS

CITY           SKY/WX    TMP DP  RH WIND       PRES   REMARKS
CHANUTE        CLEAR     41  37  86 N7        30.28R FOG
COFFEYVILLE    CLEAR     41  36  82 N7        30.27S
HUTCHINSON     CLEAR     38  31  76 SE3       30.27S
MEDICINE LODGE   N/A     41  38  89 SE5       30.28R
NEWTON         CLEAR     37  28  70 S6        30.29F
PARSONS        CLEAR     38  34  85 N7        30.28S FOG
WICHITA INTL   PTCLDY    40  35  83 CALM      30.27S HAZE
WICHITA JABRA  CLEAR     40  34  79 CALM      30.27S HAZE
WICHITA MCCONL CLEAR     43  38  82 E2        30.28S
WINFIELD       CLEAR     36  31  82 N5        30.28S HAZE
$$

KSZ007>012-019>026-033>040-048>060-102>105-180500-
NORTHEAST KANSAS

CITY           SKY/WX    TMP DP  RH WIND       PRES   REMARKS
CONCORDIA      CLEAR     43  29  57 S10       30.24S
EMPORIA        CLEAR     40  32  73 E3        30.27F HAZE
LAWRENCE       CLEAR     36  32  85 CALM      30.29S
MANHATTAN      CLOUDY    41  32  70 CALM      30.28R HAZE
OLATHE IND     CLEAR     38  33  82 CALM      30.28F
OLATHE EXE     PTCLDY    39  33  79 CALM      30.27F
SALINA         CLEAR     40  29  64 S8        30.27R HAZE
TOPEKA BILLARD CLEAR     42  33  70 CALM      30.29S HAZE
TOPEKA FORBES  CLEAR     37  32  82 S5        30.28S
$$



USA.gov is the U.S. government's official web portal to all federal, state and local government web resources and services.